{"data":{"norad_id":63233,"epoch":"2026-05-25T03:26:52.973088Z","epoch_age_seconds":59044,"freshness":"FRESH","line1":"1 63233U 25052Z   26145.14366867  .00004379  00000+0  19766-3 0  9994","line2":"2 63233  97.3945  37.3907 0004381 231.7952 128.2890 15.21503213 66308","mean_motion":15.21503213,"eccentricity":0.0004381,"inclination_deg":97.3945,"raan_deg":37.3907,"arg_perigee_deg":231.7952,"mean_anomaly_deg":128.289,"bstar":0.00019766,"rev_number":6630,"period_min":94.643244108614,"perigee_km":498.29183341193,"apogee_km":504.3196011208,"semimajor_km":6879.4427172664,"source":"CELESTRAK","updated_at":"2026-05-25T13:38:03.581562Z"}}